"TOA5","AWS1","CR1000","7964","CR1000.Std.14","CPU:AWS1_114.CR1","64363","TBL110"
"TIMESTAMP","RECORD","Wind_spd_WVc(1)","Wind_spd_WVc(2)","Air_Temp_Avg","Humidity_Avg","SW_upper_Wm2_Avg","Rain_Tot","Press_Avg","Issui_Tot","Depth_cm","SR50A_Raw","Quality","Ground_Temp_Avg(1)","Ground_Temp_Avg(2)","SW_lower_Wm2_Avg","Albedo_Avg","SWC_per(1)","SWC_per(2)","Period(1)","Period(2)"
"TS","RN","","","","","","","","","","","","","","","","","","",""
"","","WVc","WVc","Avg","Avg","Avg","Tot","Avg","Tot","Smp","Smp","Smp","Avg","Avg","Avg","Avg","Smp","Smp","Smp","Smp"
"2016-06-01 00:00:00",237949,1.07,355,11.99,58.27,0,0,859.1102,0,19.84,2.918,297,17.45,16.1,0.05684311,0,50.17,58.79,33.34,35.4
"2016-06-01 00:10:00",237950,0.386,37.54,11.67,62.19,0,0,859.0743,0,18.3,2.935,297,17.46,16.1,0,0,50.22,58.79,33.35,35.4
"2016-06-01 00:20:00",237951,0.865,29.34,11.23,64.05,0,0,859.0848,0,17.81,2.943,285,17.37,16.1,0,0,50.17,58.79,33.34,35.4
"2016-06-01 00:30:00",237952,0.521,346,11.36,63.27,0,0,858.9059,0,19.94,2.921,265,17.35,16.1,0.1743189,0,50.17,58.79,33.34,35.4
"2016-06-01 00:40:00",237953,0.682,20.58,10.95,65.39,0,0,858.9059,0,7.301,3.046,250,17.27,16.1,0.04547449,0,50.17,58.79,33.34,35.4
"2016-06-01 00:50:00",237954,0.634,23.94,11.02,65.18,0,0,858.8047,0,20.77,2.914,324,17.29,16.1,0.1288444,0,50.17,58.79,33.34,35.4
"2016-06-01 01:00:00",237955,0.624,27.96,10.9,66.14,0,0,858.5731,0,-19.55,3.311,170,17.18,16.1,0.02273725,0,50.22,58.73,33.35,35.39
"2016-06-01 01:10:00",237956,0.578,28.92,10.58,67.95,0,0,858.4909,0,19.11,2.932,292,17.19,16.1,0.0189477,0,50.17,58.67,33.34,35.37
"2016-06-01 01:20:00",237957,0.345,26.05,10.67,67.97,0,0,858.3035,0,19.44,2.929,301,17.12,16.1,0.06063266,0,50.17,58.67,33.34,35.37
"2016-06-01 01:30:00",237958,0.621,265,10.86,66.82,0,0,858.2361,0,-19.45,3.309,178,17.09,16.1,0.4433763,0,50.17,58.67,33.34,35.37
"2016-06-01 01:40:00",237959,1.02,283.4,10.71,69.58,0,0,858.1118,0,19.11,2.932,242,17.04,16.1,0.1023176,0,50.17,58.67,33.34,35.37
"2016-06-01 01:50:00",237960,0.898,292.5,10.62,71.28,0,0,858.0928,0,7.915,3.043,240,17.02,16.1,0.01136862,0,50.17,58.67,33.34,35.37
"2016-06-01 02:00:00",237961,0.775,239.6,10.24,74.23,0,0,857.9265,0,8.25,3.042,250,16.95,16.1,0,0,50.17,58.67,33.34,35.37
"2016-06-01 02:10:00",237962,0.639,237.1,10.03,76.78,0,0,857.8506,0,-20.18,3.322,176,16.95,16.1,0,0,50.17,58.61,33.34,35.36
"2016-06-01 02:20:00",237963,0.701,288.8,9.87,78.62,0,0,857.9222,0,-19.26,3.314,185,16.87,16.1,0,0,50.17,58.61,33.34,35.36
"2016-06-01 02:30:00",237964,0.845,291.1,9.73,79.09,0,0,857.9938,0,-19.72,3.319,190,16.85,16.11,0,0,50.17,58.67,33.34,35.37
"2016-06-01 02:40:00",237965,0.71,270.8,9.63,80.8,0,0,858.0233,0,8.23,3.045,271,16.79,16.12,0,0,50.17,58.61,33.34,35.36
"2016-06-01 02:50:00",237966,0.999,267,9.44,79.56,0,0,858.0634,0,-31.17,3.434,230,16.8,16.14,0,0,50.17,58.61,33.34,35.36
"2016-06-01 03:00:00",237967,0.559,268.6,9.21,81.1,0,0,858.0043,0,9.07,3.039,285,16.72,16.11,0,0,50.22,58.61,33.35,35.36
"2016-06-01 03:10:00",237968,0.849,283.8,8.93,82,0,0,858.0317,0,7.4,3.057,242,16.69,16.07,0,0,50.17,58.61,33.34,35.36
"2016-06-01 03:20:00",237969,0.857,260.2,8.87,80.6,0,0,858.0928,0,8.53,3.046,266,16.67,16.06,0,0,50.17,58.61,33.34,35.36
"2016-06-01 03:30:00",237970,0.205,226.5,8.65,80.8,0,0,858.0549,0,7.802,3.055,241,16.7,16.07,0,0,50.22,58.61,33.35,35.36
"2016-06-01 03:40:00",237971,0.155,188,8.36,81.6,0,0,858.0591,0,9.36,3.041,274,16.63,16.09,0,0,50.17,58.61,33.34,35.36
"2016-06-01 03:50:00",237972,0.333,258,8.23,79.68,0,0,858.0549,0,7.836,3.055,240,16.62,16.13,0.1402576,0,50.17,58.56,33.34,35.35
"2016-06-01 04:00:00",237973,0.401,353.6,8.1,77.12,0,0,858.0865,0,318,0,0,16.54,16.16,0.1667944,0,50.22,58.56,33.35,35.35
"2016-06-01 04:10:00",237974,0.395,259.1,8.05,77.72,0,0,858.0675,0,8.47,3.053,283,16.53,16.12,0.2160766,0,50.17,58.56,33.34,35.35
"2016-06-01 04:20:00",237975,0.46,187.8,7.44,86.7,0,0,858.0624,0,-21.34,3.347,194,16.46,16.11,0.007581671,0,50.17,58.61,33.34,35.36
"2016-06-01 04:30:00",237976,0.5,321.6,7.449,85.4,0.09042741,0,858.082,0,-20.48,3.338,189,16.44,16.08,0.5724162,0.86,50.17,58.56,33.34,35.35
"2016-06-01 04:40:00",237977,0.644,183.8,7.211,90.7,1.006497,0,858.1002,0,-21.98,3.358,198,16.37,16.06,0.6633963,0.706,50.17,58.61,33.34,35.36
"2016-06-01 04:50:00",237978,0.614,212,7.098,96.7,5.417781,0,858.1316,0,-21.64,3.352,189,16.4,16.02,1.830974,0.352,50.17,58.61,33.34,35.36
"2016-06-01 05:00:00",237979,0.499,208.5,7.381,87.6,12.40821,0,858.3206,0,9.07,3.048,281,16.3,16.02,3.116067,0.257,50.22,58.56,33.35,35.35
"2016-06-01 05:10:00",237980,0.54,178.3,7.501,83.7,24.43899,0,858.2128,0,-22.04,3.356,187,16.31,16.02,5.07593,0.209,50.22,58.56,33.35,35.35
"2016-06-01 05:20:00",237981,0.758,208.6,7.508,75.98,41.5337,0,858.1422,0,8.04,3.057,262,16.2,16.03,7.445203,0.179,50.17,58.56,33.34,35.35
"2016-06-01 05:30:00",237982,0.389,154,7.574,75.04,56.23799,0,858.1846,0,9.53,3.042,277,16.22,16.04,9.632516,0.171,50.17,58.56,33.34,35.35
"2016-06-01 05:40:00",237983,0.488,177.8,7.833,75.33,62.89423,0,858.1392,0,7.965,3.057,238,16.15,16.05,11.34976,0.18,50.22,58.56,33.35,35.35
"2016-06-01 05:50:00",237984,0.658,185.5,8.1,68.97,100.5592,0,858.1353,0,-20.79,3.338,171,16.11,16.03,20.78516,0.21,50.22,58.56,33.35,35.35
"2016-06-01 06:00:00",237985,0.587,154,8.46,65.5,119.9421,0,858.105,0,-20.65,3.334,171,16.07,16.02,30.80434,0.267,50.22,58.56,33.35,35.35
"2016-06-01 06:10:00",237986,0.765,197.1,9.05,61.08,104.3179,0,858.02,0,-21.06,3.335,172,16.04,16.02,31.14551,0.31,50.17,58.56,33.34,35.35
"2016-06-01 06:20:00",237987,0.74,221,9.17,60.16,86.44468,0,857.9916,0,-21.27,3.336,180,16.02,16.02,34.46629,0.4,50.22,58.56,33.35,35.35
"2016-06-01 06:30:00",237988,0.63,222.2,9.38,58.42,127.3675,0,858.0361,0,18.55,2.944,304,16.02,16.02,35.73583,0.3,50.22,58.5,33.35,35.33
"2016-06-01 06:40:00",237989,0.557,242.1,9.62,57.15,193.8352,0,858.0682,0,19.95,2.928,246,15.92,16.02,39.45842,0.259,50.22,58.56,33.35,35.35
"2016-06-01 06:50:00",237990,0.941,202.9,10.06,51.49,140.8088,0,858.0641,0,19.84,2.927,250,15.88,16.01,43.8012,0.314,50.22,58.5,33.35,35.33
"2016-06-01 07:00:00",237991,0.614,268.6,10.22,52.74,140.5002,0,858.0551,0,-20.46,3.323,191,15.87,15.98,42.75446,0.305,50.22,58.5,33.35,35.33
"2016-06-01 07:10:00",237992,0.772,160.4,10.22,53.39,139.2549,0,858.0445,0,-19.76,3.316,185,15.85,15.95,40.56321,0.292,50.22,58.5,33.35,35.33
"2016-06-01 07:20:00",237993,0.533,248.7,10.46,51.85,129.3107,0,857.9286,0,-21.74,3.334,266,15.72,15.91,40.7427,0.315,50.17,58.5,33.34,35.33
"2016-06-01 07:30:00",237994,0.622,227.3,10.66,53.65,129.579,0,857.8044,0,20.81,2.916,395,15.71,15.82,43.45136,0.338,50.17,58.56,33.34,35.35
"2016-06-01 07:40:00",237995,0.873,215.6,10.87,52.32,327.484,0,857.796,0,-24.83,3.361,226,15.73,15.79,48.77536,0.192,50.22,58.56,33.35,35.35
"2016-06-01 07:50:00",237996,0.923,280,11.17,49.08,577.269,0,857.7223,0,19.12,2.931,290,15.75,15.79,64.91492,0.112,50.22,58.5,33.35,35.33
"2016-06-01 08:00:00",237997,0.88,216.5,11.35,48.17,614.7205,0,857.6401,0,-32.95,3.438,295,15.73,15.78,87.1292,0.141,50.22,58.5,33.35,35.33
"2016-06-01 08:10:00",237998,0.547,132.2,11.78,47.62,633.2989,0,857.4147,0,-21.83,3.326,196,15.71,15.8,98.14162,0.155,50.22,58.5,33.35,35.33
"2016-06-01 08:20:00",237999,0.862,211.1,12.4,47.69,587.7881,0,857.2919,0,-22.49,3.333,189,15.71,15.84,94.18124,0.16,50.22,58.5,33.35,35.33
"2016-06-01 08:30:00",238000,0.949,175.2,12.04,47.04,640.4363,0,857.2465,0,20.32,2.913,369,15.65,15.78,105.9819,0.165,50.22,58.5,33.35,35.33
"2016-06-01 08:40:00",238001,0.808,239.2,11.95,42.61,720.0436,0,857.1673,0,20.74,2.908,226,15.57,15.7,119.9444,0.166,50.22,58.44,33.35,35.32
"2016-06-01 08:50:00",238002,0.767,181.2,12.41,43.42,697.6741,0,857.1497,0,-23.26,3.337,191,15.54,15.7,115.1458,0.165,50.17,58.5,33.34,35.33
"2016-06-01 09:00:00",238003,0.757,201.7,12.69,44.43,751.0736,0,857.1584,0,-23.01,3.333,170,15.52,15.7,123.821,0.165,50.22,58.5,33.35,35.33
"2016-06-01 09:10:00",238004,0.741,341.1,12.7,41.77,757.2217,0,857.0422,0,-38.3,3.482,268,15.47,15.68,123.8537,0.163,50.17,58.44,33.34,35.32
"2016-06-01 09:20:00",238005,0.606,166.8,13.16,43.83,902.5704,0,856.9768,0,16.66,2.94,245,15.48,15.64,147.6018,0.164,50.22,58.44,33.35,35.32
"2016-06-01 09:30:00",238006,0.331,214.2,13.87,40.87,961.9674,0,856.9558,0,21.6,2.892,310,15.51,15.61,154.3713,0.16,50.22,58.44,33.35,35.32
"2016-06-01 09:40:00",238007,1.134,305.7,13.19,36.53,911.4135,0,856.9432,0,20.27,2.91,230,15.49,15.61,147.363,0.162,50.22,58.44,33.35,35.32
"2016-06-01 09:50:00",238008,0.49,246.8,13.12,38.74,947.7758,0,856.8294,0,-16.15,3.264,186,15.48,15.62,154.1743,0.163,50.17,58.44,33.34,35.32
"2016-06-01 10:00:00",238009,0.344,265.9,13.3,41.21,1006.584,0,856.7031,0,21.72,2.891,353,15.47,15.62,162.2925,0.161,50.17,58.44,33.34,35.32
"2016-06-01 10:10:00",238010,0.757,12.61,13.79,40.92,958.6473,0,856.6946,0,318,0,0,15.49,15.57,153.3106,0.16,50.17,58.44,33.34,35.32
"2016-06-01 10:20:00",238011,0.516,296.9,13.97,42.23,1056.804,0,856.6967,0,20.27,2.903,265,15.48,15.53,171.6154,0.162,50.11,58.38,33.33,35.31
"2016-06-01 10:30:00",238012,0.472,273.9,14.15,42.38,1075.093,0,856.5515,0,19.87,2.906,223,15.49,15.49,173.2481,0.161,50.17,58.38,33.34,35.31
"2016-06-01 10:40:00",238013,0.408,278.9,14.16,42.33,1054.199,0,856.4504,0,21.44,2.892,257,15.6,15.45,168.384,0.16,50.17,58.38,33.34,35.31
"2016-06-01 10:50:00",238014,0.532,224.5,13.97,42.47,1118.19,0,856.4251,0,20.04,2.905,230,15.56,15.49,179.298,0.16,50.11,58.38,33.33,35.31
"2016-06-01 11:00:00",238015,0.729,321.9,14.01,44.42,1111.153,0,856.402,0,-18.5,3.283,184,15.65,15.51,178.1804,0.16,50.11,58.38,33.33,35.31
"2016-06-01 11:10:00",238016,0.689,326.8,13.58,46.66,1026.759,0,856.3473,0,-26.75,3.365,224,15.71,15.45,162.4971,0.158,50.11,58.38,33.33,35.31
"2016-06-01 11:20:00",238017,1.079,58.41,13.93,47.07,1124.908,0,856.2756,0,318,0,0,15.78,15.43,183.537,0.163,50.11,58.32,33.33,35.29
"2016-06-01 11:30:00",238018,0.912,338.9,14.48,48.21,1143.85,0,856.2104,0,318,0,0,15.87,15.4,188.7345,0.165,50.06,58.32,33.31,35.29
"2016-06-01 11:40:00",238019,0.854,9.45,14.54,48.45,1148.168,0,856.202,0,7.222,3.027,288,15.99,15.37,188.8747,0.165,50.06,58.32,33.31,35.29
"2016-06-01 11:50:00",238020,0.722,297.7,14.71,48.4,1147.252,0,856.1978,0,318,0,0,16.04,15.38,189.1702,0.165,50.06,58.32,33.31,35.29
"2016-06-01 12:00:00",238021,0.491,284.4,14.33,48.22,1141.076,0,856.1894,0,318,0,0,16.13,15.36,187.6852,0.164,50.06,58.32,33.31,35.29
"2016-06-01 12:10:00",238022,0.612,265.6,14.55,48,1135.367,0,856.0694,0,8.07,3.019,278,16.29,15.36,188.8557,0.166,50.06,58.32,33.31,35.29
"2016-06-01 12:20:00",238023,0.702,283.2,14.45,47.06,1129.042,0,856.0757,0,20.03,2.904,224,16.35,15.37,189.5793,0.168,50.01,58.26,33.3,35.28
"2016-06-01 12:30:00",238024,0.593,273.3,14.61,47.45,1121.958,0,856.0988,0,-17.5,3.27,179,16.47,15.36,186.9199,0.167,50.01,58.26,33.3,35.28
"2016-06-01 12:40:00",238025,0.824,276.4,13.97,49.88,1000.314,0,855.8588,0,9.29,3.01,259,16.61,15.41,164.5957,0.164,49.95,58.21,33.28,35.26
"2016-06-01 12:50:00",238026,0.763,273.9,14.23,50.82,1028.41,0,855.6924,0,318,0,0,16.72,15.42,171.0964,0.166,50.01,58.21,33.3,35.26
"2016-06-01 13:00:00",238027,0.677,258.6,13.83,52.56,930.9011,0,855.644,0,318,0,0,16.8,15.39,153.2083,0.164,49.95,58.21,33.28,35.26
"2016-06-01 13:10:00",238028,0.468,276.7,14.04,52.35,991.3046,0,855.5261,0,19.76,2.908,253,16.96,15.38,164.9859,0.166,49.95,58.21,33.28,35.26
"2016-06-01 13:20:00",238029,0.715,283.7,14.59,50.69,1079.164,0,855.4966,0,-21.29,3.306,198,17.06,15.37,181.2906,0.168,49.95,58.21,33.28,35.26
"2016-06-01 13:30:00",238030,0.658,276.2,14.27,51.33,1060.053,0,855.6293,0,-2.754,3.127,202,17.18,15.36,178.082,0.168,49.9,58.15,33.27,35.25
"2016-06-01 13:40:00",238031,0.729,311.6,14.12,50.97,1026.363,0,855.5745,0,19.62,2.91,274,17.32,15.36,172.4374,0.168,49.9,58.21,33.27,35.26
"2016-06-01 13:50:00",238032,0.88,331.7,14.04,52.58,1023.4,0,855.6735,0,-22.19,3.318,178,17.38,15.36,173.752,0.17,49.84,58.21,33.26,35.26
"2016-06-01 14:00:00",238033,0.93,339,13.74,53.43,1011.9,0,855.6904,0,-20.5,3.303,178,17.48,15.36,171.2972,0.169,49.84,58.15,33.26,35.25
"2016-06-01 14:10:00",238034,0.615,266.9,13.66,53.96,938.8139,0,855.6924,0,318,0,0,17.59,15.36,157.3526,0.166,49.84,58.21,33.26,35.26
"2016-06-01 14:20:00",238035,0.818,24.1,14.3,53.3,992.4833,0,855.6967,0,318,0,0,17.69,15.36,164.5844,0.166,49.79,58.15,33.24,35.25
"2016-06-01 14:30:00",238036,0.808,321.7,14.19,53.62,952.9031,0,855.6924,0,10.96,2.991,278,17.75,15.35,154.341,0.162,49.79,58.15,33.24,35.25
"2016-06-01 14:40:00",238037,1.085,325.4,13.81,54.68,926.7442,0,855.6904,0,318,0,0,17.86,15.4,142.4004,0.153,49.73,58.15,33.23,35.25
"2016-06-01 14:50:00",238038,0.599,289.6,13.63,57.42,764.3137,0,855.6146,0,318,0,0,17.94,15.4,107.6318,0.14,49.79,58.09,33.24,35.24
"2016-06-01 15:00:00",238039,0.68,293.4,13.12,58.12,740.5868,0,855.564,0,-21.4,3.316,240,18.02,15.38,93.71757,0.126,49.73,58.09,33.23,35.24
"2016-06-01 15:10:00",238040,0.856,305.3,12.43,60.11,598.1271,0,855.6483,0,318,0,0,18.06,15.42,61.8811,0.106,49.73,58.09,33.23,35.24
"2016-06-01 15:20:00",238041,0.614,251.8,12.37,59.91,573.9994,0,855.684,0,-19.22,3.299,207,18.13,15.42,58.25574,0.105,49.68,58.03,33.22,35.22
"2016-06-01 15:30:00",238042,0.461,284.4,12.15,61.45,379.7563,0,855.7683,0,-19.07,3.299,185,18.17,15.43,57.6875,0.16,49.68,58.09,33.22,35.24
"2016-06-01 15:40:00",238043,0.974,284.5,11.62,62.87,274.8102,0,855.9493,0,22.91,2.893,241,18.24,15.46,50.33829,0.182,49.68,58.03,33.22,35.22
"2016-06-01 15:50:00",238044,0.632,12.11,11.34,65.27,241.0924,0,856.1389,0,-16.97,3.282,237,18.32,15.46,40.84122,0.169,49.68,58.03,33.22,35.22
"2016-06-01 16:00:00",238045,0.918,75.04,11.46,64.55,236.777,0,856.1683,0,318,0,0,18.39,15.53,39.72477,0.168,49.68,57.97,33.22,35.21
"2016-06-01 16:10:00",238046,0.509,158.6,11.45,65.64,261.4626,0,856.2102,0,318,0,0,18.39,15.56,44.2582,0.169,49.62,57.97,33.2,35.21
"2016-06-01 16:20:00",238047,0.657,111.7,11.48,65.81,239.0798,0,856.2049,0,-22.03,3.331,301,18.44,15.57,39.75971,0.166,49.62,57.97,33.2,35.21
"2016-06-01 16:30:00",238048,0.669,15.99,11.08,66.17,166.3352,0,856.2409,0,-26.35,3.377,194,18.52,15.6,26.86873,0.161,49.57,57.97,33.19,35.21
"2016-06-01 16:40:00",238049,0.846,20.95,10.5,67.82,142.125,0,856.263,0,20.72,2.918,262,18.56,15.63,23.08494,0.162,49.57,57.97,33.19,35.21
"2016-06-01 16:50:00",238050,0.875,275.1,10.09,69.28,143.7206,0,856.2802,0,-19.26,3.312,192,18.56,15.67,24.41189,0.17,49.57,57.91,33.19,35.2
"2016-06-01 17:00:00",238051,0.716,301.9,10.01,69.84,150.2187,0,856.2984,0,20.86,2.918,264,18.57,15.75,26.17804,0.174,49.57,57.91,33.19,35.2
"2016-06-01 17:10:00",238052,1.154,334.8,9.86,70.46,138.9,0,856.5164,0,21.2,2.916,309,18.55,15.8,24.51073,0.176,49.51,57.97,33.18,35.21
"2016-06-01 17:20:00",238053,0.643,339.7,9.92,70.99,117.657,0,856.534,0,-30.54,3.423,240,18.54,15.77,20.81594,0.177,49.46,57.97,33.16,35.21
"2016-06-01 17:30:00",238054,0.709,303,9.54,71.85,86.80031,0,856.549,0,20.3,2.928,261,18.55,15.76,14.77542,0.17,49.51,57.91,33.18,35.2
"2016-06-01 17:40:00",238055,1.095,289.8,9.08,73.11,84.78407,0,856.6732,0,-20.78,3.334,176,18.57,15.76,14.8929,0.176,49.51,57.91,33.18,35.2
"2016-06-01 17:50:00",238056,0.396,271.1,9.05,74.06,61.79192,0,856.6754,0,7.908,3.051,258,18.51,15.78,10.97072,0.178,49.51,57.86,33.18,35.18
"2016-06-01 18:00:00",238057,0.305,34.89,9.04,75,37.39665,0,856.6754,0,-29.62,3.421,200,18.47,15.9,6.749173,0.181,49.51,57.91,33.18,35.2
"2016-06-01 18:10:00",238058,0.353,290.1,8.89,76.46,33.31701,0,856.787,0,7.519,3.056,243,18.49,15.93,6.014001,0.181,49.46,57.86,33.16,35.18
"2016-06-01 18:20:00",238059,0.459,354.1,8.61,76.37,26.57658,0,856.7912,0,7.609,3.057,257,18.48,15.93,4.797559,0.181,49.51,57.86,33.18,35.18
"2016-06-01 18:30:00",238060,0.665,303.9,8.56,77.47,25.13416,0,856.7912,0,20.71,2.928,274,18.38,15.9,5.013563,0.2,49.46,57.86,33.16,35.18
"2016-06-01 18:40:00",238061,0.494,23.25,8.56,78.18,12.95421,0,856.8123,0,-20.69,3.336,181,18.43,15.85,2.792892,0.215,49.51,57.86,33.18,35.18
"2016-06-01 18:50:00",238062,0.315,329.2,8.37,79.7,5.659608,0,857.0313,0,-20.33,3.334,170,18.32,15.9,1.1596,0.185,49.46,57.86,33.16,35.18
"2016-06-01 19:00:00",238063,0.722,323.2,7.933,81.1,0.9432701,0,857.0692,0,-19.65,3.33,175,18.35,15.98,0.1174759,0.101,49.46,57.86,33.16,35.18
"2016-06-01 19:10:00",238064,0.566,325.4,7.643,82.5,0,0,857.2673,0,-19.16,3.326,176,18.32,16.02,0.132638,0,49.46,57.86,33.16,35.18
"2016-06-01 19:20:00",238065,0.63,250.5,7.502,82.8,0,0,857.2968,0,-20.46,3.339,175,18.27,16.03,0.238753,0,49.46,57.8,33.16,35.17
"2016-06-01 19:30:00",238066,0.275,50.15,7.573,83.2,0,0,857.3009,0,-19.83,3.333,170,18.22,16.04,0.4168854,0,49.41,57.8,33.15,35.17
"2016-06-01 19:40:00",238067,0.354,293.6,7.427,83.6,0,0,857.303,0,-19.03,3.326,170,18.21,16.04,0.2274063,0,49.46,57.8,33.16,35.17
"2016-06-01 19:50:00",238068,0.437,275.7,7.28,83.6,0,0,857.3473,0,20.66,2.934,293,18.19,16.13,0.2691208,0,49.46,57.8,33.16,35.17
"2016-06-01 20:00:00",238069,0.516,293.1,7.204,82.9,0,0,857.5536,0,-18.39,3.321,170,18.16,16.17,0.2463873,0,49.41,57.74,33.15,35.16
"2016-06-01 20:10:00",238070,0.799,301.4,7.009,83,0,0,857.5641,0,20.45,2.938,243,18.08,16.19,0.3222141,0,49.46,57.74,33.16,35.16
"2016-06-01 20:20:00",238071,0.326,167.1,7.089,84.2,0,0,857.5831,0,20.66,2.935,268,18.11,16.19,0.5610396,0,49.41,57.74,33.15,35.16
"2016-06-01 20:30:00",238072,0.321,222.3,7.2,83.4,0,0,857.5578,0,20.91,2.933,251,18.05,16.19,0.5951598,0,49.46,57.74,33.16,35.16
"2016-06-01 20:40:00",238073,0.393,203.8,7.08,83.1,0,0,857.6946,0,7.382,3.067,249,18.01,16.19,0.4321551,0,49.46,57.74,33.16,35.16
"2016-06-01 20:50:00",238074,0.252,262.1,6.952,83.2,0,0,857.7503,0,8.29,3.059,262,17.92,16.2,0.2388227,0,49.41,57.74,33.15,35.16
"2016-06-01 21:00:00",238075,0.144,327.9,6.755,85.6,0,0,857.7921,0,-20.61,3.346,170,17.9,16.2,0,0,49.46,57.68,33.16,35.14
"2016-06-01 21:10:00",238076,0.184,228.8,6.419,93.1,0,0,857.7725,0,-19.95,3.341,175,17.85,16.22,0,0,49.46,57.68,33.16,35.14
"2016-06-01 21:20:00",238077,0.127,210.2,6.116,99.1,0,0,857.752,0,-20.45,3.347,171,17.8,16.23,0,0,49.41,57.68,33.15,35.14
"2016-06-01 21:30:00",238078,0.247,182.5,5.953,98.9,0,0,857.6583,0,-20.24,3.347,175,17.78,16.25,0.1895418,0,49.46,57.68,33.16,35.14
"2016-06-01 21:40:00",238079,0.217,289.1,5.981,98.4,0,0,857.833,0,-21.36,3.356,193,17.7,16.27,0.6141155,0,49.46,57.68,33.16,35.14
"2016-06-01 21:50:00",238080,0.226,136.6,6.196,96.6,0,0,857.87,0,-19.84,3.341,184,17.69,16.28,0.7581673,0,49.41,57.62,33.15,35.13
"2016-06-01 22:00:00",238081,0.068,47.11,6.175,99.2,0,0,857.886,0,-20.3,3.345,185,17.59,16.28,0.8074481,0,49.41,57.68,33.15,35.14
"2016-06-01 22:10:00",238082,0.197,273.5,6.308,98.3,0,0,857.7621,0,7.868,3.066,255,17.56,16.31,0.7088864,0,49.41,57.62,33.15,35.13
"2016-06-01 22:20:00",238083,0.523,283,6.414,95.4,0,0,857.7032,0,-21.82,3.359,192,17.5,16.34,0.6482331,0,49.41,57.62,33.15,35.13
"2016-06-01 22:30:00",238084,0.385,280.2,6.417,96.2,0,0,857.8401,0,-19.6,3.337,179,17.44,16.36,0.4586912,0,49.41,57.62,33.15,35.13
"2016-06-01 22:40:00",238085,0.565,300.2,6.388,98.3,0,0,857.8697,0,-19.6,3.337,187,17.41,16.33,0.4852271,0,49.41,57.56,33.15,35.12
"2016-06-01 22:50:00",238086,0.202,261.5,6.501,98.6,0,0,857.857,0,-19.8,3.338,184,17.32,16.3,0.7240497,0,49.46,57.56,33.16,35.12
"2016-06-01 23:00:00",238087,0.215,342.5,6.587,99.2,0,0,857.7369,0,-19.9,3.339,187,17.34,16.29,0.6520239,0,49.46,57.56,33.16,35.12
"2016-06-01 23:10:00",238088,0.602,297,6.499,99.8,0,0,857.661,0,-31.39,3.453,245,17.24,16.28,0.439737,0,49.41,57.56,33.15,35.12
"2016-06-01 23:20:00",238089,0.536,283.1,6.565,98.6,0,0,857.6252,0,-20.59,3.346,170,17.24,16.28,0.4549004,0,49.41,57.56,33.15,35.12
"2016-06-01 23:30:00",238090,0.367,285.3,6.491,99.8,0,0,857.4103,0,8.43,3.059,262,17.15,16.28,0.4245737,0,49.41,57.62,33.15,35.13
"2016-06-01 23:40:00",238091,0.388,271.6,6.62,99.3,0,0,857.3849,0,7.314,3.071,256,17.15,16.28,0.4776454,0,49.41,57.56,33.15,35.12
"2016-06-01 23:50:00",238092,0.594,274.3,6.468,99.1,0,0,857.3849,0,7.516,3.069,243,17.07,16.28,0.371502,0,49.41,57.56,33.15,35.12
